COSMOS 2251 DEB, 37975

Orbit data source: Space-Track

COSMOS 2251 DEB, 37975 is space debris in LEO originally from a launch on Wed, 16 Jun 1993 UTC launched from the Plesetsk Missile And Space Complex (PKMTR). The debris from Iridium 33, an American commercial communications satellite, has been tracked extensively since its accidental collision with the defunct Russian satellite Cosmos 2251 in 2009. This event, occurring at high speed in low Earth orbit (LEO), generated thousands of pieces of space debris, significantly increasing the risk of further collisions. The Iridium 33 debris cloud has impacted space traffic management and orbital debris mitigation strategies, making it a subject of ongoing study in space situational awareness.

Loading next visibility...
Identifier
37975, 1993-036BQA
Orbit
LEO
Country
Flag of CISCIS
Related business
Manufacturer
Unknown
Mission
Spacecraft
Bus & Motor
Unknown
Mass
Unknown
Launch date (UTC)
1993-06-16 (32 years ago)
Launch vehicle
Unknown
Launch site
Plesetsk Missile And Space Complex (PKMTR)
Object type
Payload
Rocket body
Debris
Shape & HBR
Unknown shape, 0.1 m
Radar Cross Section
Small (<0.1 m²)

Expand to show TLE details & history
Last TLE update: 2 days ago

TLE from 2 days ago
0 COSMOS 2251 DEB
1 37975U 93036BQA 25301.05121133  .00022416  00000-0  31981-2 0  9998
2 37975  74.0040  53.4961 0097540  54.9637 306.0638 14.73415735690725
Epoch: 2025-10-28T01:13Z
TLE epoch observation values (Epoch: 2025-10-28T01:13:44.658Z)
Latitude
-0.0001°
Longitude
-1.58426°
Altitude
612.916 km
Speed
7.574 km/s
True Right ascension
03h 33m 59s
True Declination
0° 00' 00"
Sunlit
Object was in full shadow at epoch
Visualization orbit readout
Latitude
Unknown
Longitude
Unknown
Altitude
Unknown
Speed
Unknown
Apparent Right ascension
Unknown
Apparent Declination
Unknown
Sunlit
N/A
Visualization observer readout
Local Sidereal Time
12:39:30
Azimuth
Unknown
Elevation
Unknown
Doppler factor
Unknown
Orbital elements
Apogee altitude
716.301 km
Perigee altitude
579.239 km
Semi-major axis
7,025.907 km
Eccentricity
0.00975
Inclination
74.004°
RAAN
53.4961°
Arg. of periapsis
54.9637°
True anomaly
305.15378°
Mean anomaly
306.0638°
Eccentric anomaly
305.60944°
Mean motion
3.68544 °/min
Orbital period
97.68 mins
BSTAR
0.0031981

Documentation

Showing up to 5 results
|